Location: Poigny-la-Forêt
(48.6876°N, 1.7701°E)
Time: 00:09:49
(UTC+01:00)

ISS - Visible Passes

Search period start: 21 March 2019 00:00
Search period end: 31 March 2019 00:00
Orbit: 406 x 411 km, 51.6° (Epoch: 21 March)

Date Brightness Start Highest point End Pass type
(mag) Time Alt. Az. Time Alt. Az. Time Alt. Az.
21 Mar -2.0 20:27:14 10° S 20:28:52 17° SSE 20:28:52 17° SSE visible
22 Mar -1.6 19:37:41 10° SSE 19:38:50 11° SE 19:39:58 10° ESE visible
22 Mar -2.5 21:11:34 10° SW 21:13:32 32° SW 21:13:32 32° SW visible
23 Mar -3.2 20:20:47 10° SW 20:23:51 36° SSE 20:25:12 25° E visible
23 Mar -1.1 21:57:02 10° W 21:57:57 17° W 21:57:57 17° W visible
24 Mar -3.9 21:05:56 10° WSW 21:09:14 83° NNW 21:09:25 77° NE visible
25 Mar -3.9 20:14:53 10° WSW 20:18:11 70° SSE 20:20:43 16° ENE visible
25 Mar -1.8 21:51:38 10° W 21:53:28 28° WNW 21:53:28 28° WNW visible
26 Mar -3.3 21:00:27 10° W 21:03:42 57° NNW 21:04:38 39° NE visible
26 Mar -0.3 22:37:18 10° WNW 22:37:23 11° WNW 22:37:23 11° WNW visible
27 Mar -3.6 20:09:15 10° WSW 20:12:33 72° NNW 20:15:43 11° ENE visible
27 Mar -2.3 21:46:09 10° WNW 21:48:27 36° NW 21:48:27 36° NW visible
28 Mar -3.1 20:54:57 10° W 20:58:10 48° N 20:59:28 30° NE visible
28 Mar -0.6 22:31:41 10° WNW 22:32:12 14° WNW 22:32:12 14° WNW visible
29 Mar -3.2 20:03:43 10° W 20:06:58 53° N 20:10:13 10° ENE visible
29 Mar -2.8 21:40:33 10° WNW 21:43:08 45° NW 21:43:08 45° NW visible
30 Mar -3.2 20:49:23 10° WNW 20:52:37 50° N 20:54:03 28° ENE visible
30 Mar -0.9 22:26:00 10° WNW 22:26:46 16° WNW 22:26:46 16° WNW visible
